• In Belgium
  • List of Countries
  • For 7 days
  • Water Temperature
  • Satellite Maps
  • Weather Map
  • Weather Widgets
  • user-avatar
    Login

    Hourly Weather Gold Coast

    Today, 20 October, Friday

    Time Temperature Precipitation Wind Pressure Humidity
    00:00 +18°C° 0 mm 3 mps 763 mmHg 91%
    01:00 +17°C° 0 mm 2 mps 763 mmHg 92%
    02:00 +17°C° 0 mm 2 mps 763 mmHg 92%
    03:00 +17°C° 0 mm 2 mps 762 mmHg 92%
    04:00 +17°C° 0 mm 3 mps 762 mmHg 92%
    05:00 +18°C° 0 mm 2 mps 762 mmHg 87%
    06:00 +20°C° 0 mm 2 mps 762 mmHg 83%
    07:00 +21°C° 0 mm 2 mps 762 mmHg 78%
    08:00 +24°C° 0 mm 3 mps 762 mmHg 70%
    09:00 +25°C° 0 mm 3 mps 762 mmHg 63%
    10:00 +26°C° 0 mm 3 mps 762 mmHg 58%
    11:00 +26°C° 0 mm 3 mps 761 mmHg 57%
    12:00 +26°C° 0 mm 3 mps 761 mmHg 57%
    13:00 +27°C° 0 mm 3 mps 760 mmHg 57%
    14:00 +27°C° 0 mm 4 mps 760 mmHg 57%
    15:00 +27°C° 0 mm 4 mps 759 mmHg 58%
    16:00 +26°C° 0 mm 5 mps 759 mmHg 60%
    17:00 +25°C° 0 mm 5 mps 759 mmHg 67%
    18:00 +22°C° 0 mm 4 mps 759 mmHg 75%
    19:00 +21°C° 0 mm 4 mps 759 mmHg 82%
    20:00 +20°C° 0 mm 4 mps 759 mmHg 84%
    21:00 +20°C° 0 mm 4 mps 759 mmHg 86%
    22:00 +20°C° 0 mm 4 mps 759 mmHg 87%
    23:00 +19°C° 0 mm 4 mps 759 mmHg 88%

    Tomorrow, 21 October, Saturday

    Time Temperature Precipitation Wind Pressure Humidity
    00:00 +19°C° 0 mm 4 mps 758 mmHg 89%
    01:00 +19°C° 0 mm 3 mps 758 mmHg 89%
    02:00 +19°C° 0.1 mm 3 mps 758 mmHg 90%
    03:00 +19°C° 0.1 mm 3 mps 757 mmHg 91%
    04:00 +19°C° 0.1 mm 3 mps 757 mmHg 92%
    05:00 +19°C° 0.9 mm 3 mps 757 mmHg 93%
    06:00 +19°C° 0.9 mm 3 mps 757 mmHg 93%
    07:00 +19°C° 0.9 mm 3 mps 757 mmHg 93%
    08:00 +19°C° 1.9 mm 4 mps 757 mmHg 93%
    09:00 +19°C° 1.9 mm 5 mps 757 mmHg 92%
    10:00 +19°C° 1.9 mm 5 mps 757 mmHg 92%
    11:00 +19°C° 0.8 mm 6 mps 757 mmHg 91%
    12:00 +18°C° 0.8 mm 7 mps 757 mmHg 89%
    13:00 +18°C° 0.8 mm 7 mps 756 mmHg 88%
    14:00 +17°C° 1.4 mm 8 mps 756 mmHg 89%
    15:00 +17°C° 1.4 mm 8 mps 756 mmHg 90%
    16:00 +16°C° 1.4 mm 8 mps 756 mmHg 91%
    17:00 +16°C° 1.3 mm 8 mps 756 mmHg 92%
    18:00 +16°C° 1.3 mm 7 mps 756 mmHg 92%
    19:00 +16°C° 1.3 mm 7 mps 756 mmHg 92%
    20:00 +16°C° 0.4 mm 7 mps 756 mmHg 91%
    21:00 +16°C° 0.4 mm 7 mps 756 mmHg 90%
    22:00 +15°C° 0.4 mm 7 mps 757 mmHg 89%
    23:00 +15°C° 0.1 mm 7 mps 756 mmHg 88%

    Day after tomorrow, 22 October, Sunday

    Time Temperature Precipitation Wind Pressure Humidity
    00:00 +15°C° 0.1 mm 7 mps 756 mmHg 88%
    01:00 +14°C° 0.1 mm 7 mps 755 mmHg 87%
    02:00 +14°C° 0 mm 6 mps 755 mmHg 87%
    03:00 +13°C° 0 mm 6 mps 755 mmHg 87%
    04:00 +13°C° 0 mm 6 mps 754 mmHg 87%
    05:00 +14°C° 0 mm 6 mps 755 mmHg 84%
    06:00 +15°C° 0 mm 6 mps 755 mmHg 81%
    07:00 +15°C° 0 mm 6 mps 755 mmHg 78%
    08:00 +17°C° 0 mm 6 mps 755 mmHg 71%
    09:00 +20°C° 0 mm 5 mps 755 mmHg 64%
    10:00 +23°C° 0 mm 5 mps 755 mmHg 56%
    11:00 +23°C° 0 mm 5 mps 755 mmHg 54%
    12:00 +25°C° 0 mm 5 mps 754 mmHg 51%
    13:00 +26°C° 0 mm 4 mps 754 mmHg 49%
    14:00 +25°C° 0.1 mm 4 mps 754 mmHg 52%
    15:00 +25°C° 0.1 mm 5 mps 753 mmHg 56%
    16:00 +23°C° 0.1 mm 5 mps 753 mmHg 59%
    17:00 +21°C° 0 mm 4 mps 754 mmHg 68%
    18:00 +19°C° 0 mm 4 mps 754 mmHg 76%
    19:00 +18°C° 0 mm 4 mps 755 mmHg 84%
    20:00 +17°C° 0 mm 3 mps 755 mmHg 85%
    21:00 +17°C° 0 mm 2 mps 756 mmHg 87%
    22:00 +16°C° 0 mm 2 mps 756 mmHg 88%
    23:00 +16°C° 0 mm 2 mps 756 mmHg 89%

    23 October, Monday

    Time Temperature Precipitation Wind Pressure Humidity
    00:00 +16°C° 0 mm 1 mps 756 mmHg 90%
    01:00 +15°C° 0 mm 1 mps 756 mmHg 91%
    02:00 +15°C° 0.1 mm 1 mps 755 mmHg 92%
    03:00 +15°C° 0.1 mm 1 mps 755 mmHg 92%
    04:00 +15°C° 0.1 mm 1 mps 755 mmHg 93%
    05:00 +16°C° 0 mm 1 mps 756 mmHg 89%
    06:00 +17°C° 0 mm 2 mps 756 mmHg 85%
    07:00 +19°C° 0 mm 2 mps 756 mmHg 82%
    08:00 +21°C° 0.1 mm 2 mps 757 mmHg 70%
    09:00 +25°C° 0.1 mm 2 mps 757 mmHg 57%
    10:00 +27°C° 0.1 mm 1 mps 757 mmHg 45%
    11:00 +27°C° 0.4 mm 2 mps 757 mmHg 49%
    12:00 +26°C° 0.4 mm 2 mps 757 mmHg 53%
    13:00 +26°C° 0.4 mm 2 mps 756 mmHg 57%
    14:00 +25°C° 0.3 mm 3 mps 756 mmHg 59%
    15:00 +24°C° 0.3 mm 3 mps 756 mmHg 61%
    16:00 +24°C° 0.3 mm 3 mps 756 mmHg 64%
    17:00 +21°C° 0.1 mm 3 mps 757 mmHg 71%
    18:00 +20°C° 0.1 mm 3 mps 758 mmHg 77%
    19:00 +18°C° 0.1 mm 3 mps 759 mmHg 84%
    20:00 +18°C° 0.1 mm 2 mps 759 mmHg 86%
    21:00 +17°C° 0.1 mm 2 mps 760 mmHg 87%
    22:00 +17°C° 0.1 mm 2 mps 760 mmHg 89%
    23:00 +17°C° 0 mm 2 mps 760 mmHg 90%

    24 October, Tuesday

    Time Temperature Precipitation Wind Pressure Humidity
    00:00 +16°C° 0 mm 2 mps 760 mmHg 91%
    01:00 +16°C° 0 mm 2 mps 760 mmHg 92%
    02:00 +16°C° 0 mm 2 mps 760 mmHg 92%
    03:00 +16°C° 0 mm 2 mps 760 mmHg 93%
    04:00 +15°C° 0 mm 2 mps 760 mmHg 93%
    05:00 +17°C° 0 mm 2 mps 761 mmHg 88%
    06:00 +19°C° 0 mm 1 mps 761 mmHg 82%
    07:00 +21°C° 0 mm 1 mps 762 mmHg 76%
    08:00 +23°C° 0 mm 1 mps 762 mmHg 68%
    09:00 +25°C° 0 mm 2 mps 762 mmHg 61%
    10:00 +27°C° 0 mm 2 mps 762 mmHg 53%
    11:00 +27°C° 0 mm 2 mps 761 mmHg 51%
    12:00 +28°C° 0 mm 3 mps 760 mmHg 49%
    13:00 +29°C° 0 mm 3 mps 760 mmHg 47%
    14:00 +28°C° 0 mm 4 mps 759 mmHg 50%
    15:00 +28°C° 0 mm 4 mps 759 mmHg 53%
    16:00 +27°C° 0 mm 4 mps 759 mmHg 56%
    17:00 +25°C° 0 mm 4 mps 759 mmHg 64%
    18:00 +22°C° 0 mm 4 mps 760 mmHg 72%
    19:00 +20°C° 0 mm 4 mps 760 mmHg 79%
    20:00 +20°C° 0 mm 4 mps 760 mmHg 81%
    21:00 +19°C° 0 mm 4 mps 761 mmHg 83%
    22:00 +19°C° 0 mm 4 mps 761 mmHg 85%
    23:00 +19°C° 0 mm 4 mps 761 mmHg 86%

    25 October, Wednesday

    Time Temperature Precipitation Wind Pressure Humidity
    00:00 +19°C° 0 mm 4 mps 760 mmHg 88%
    01:00 +18°C° 0 mm 4 mps 760 mmHg 89%
    02:00 +18°C° 0 mm 4 mps 760 mmHg 89%
    03:00 +18°C° 0 mm 4 mps 760 mmHg 90%
    04:00 +18°C° 0 mm 4 mps 760 mmHg 91%
    05:00 +19°C° 0 mm 4 mps 760 mmHg 86%
    06:00 +20°C° 0 mm 4 mps 761 mmHg 82%
    07:00 +21°C° 0 mm 4 mps 761 mmHg 77%
    08:00 +23°C° 0 mm 4 mps 761 mmHg 68%
    09:00 +27°C° 0 mm 4 mps 760 mmHg 59%
    10:00 +29°C° 0 mm 4 mps 760 mmHg 50%
    11:00 +30°C° 0 mm 5 mps 759 mmHg 47%
    12:00 +32°C° 0 mm 5 mps 758 mmHg 44%
    13:00 +33°C° 0 mm 5 mps 758 mmHg 41%
    14:00 +32°C° 0 mm 6 mps 757 mmHg 44%
    15:00 +32°C° 0 mm 6 mps 757 mmHg 48%
    16:00 +30°C° 0 mm 6 mps 757 mmHg 52%
    17:00 +28°C° 0 mm 6 mps 757 mmHg 60%
    18:00 +26°C° 0 mm 6 mps 757 mmHg 69%
    19:00 +23°C° 0 mm 6 mps 757 mmHg 78%
    20:00 +22°C° 0 mm 6 mps 758 mmHg 80%
    21:00 +22°C° 0 mm 6 mps 758 mmHg 82%
    22:00 +22°C° 0 mm 6 mps 758 mmHg 84%
    23:00 +21°C° 0 mm 6 mps 757 mmHg 84%
    Show more